SCP
0 0 0 0 0 0 0 0 0 0 0 0 0 0 0 0 0 0 0 0 0 0 0 0 0 0 0 0 0 0 0 0 0 0 0 0 0 0 0 0 0 0 0
0 0 0 0 0 0 0 0 0 0 0 0 0 0 0 0 0 0 0 0 0 0 0 0 0 0 0 0 0 0 0 0 0 0 0 0 0 0 0 0 0 0 0
0 0 0 0 0 0 0 0 0 0 0 0 0 0 0 0 0 0 0 0 0 0 0 0 0 0 0 0 0 0 0 0 0 0 0 0 0 0 0 0 0 0 0
0 0 0 0 0 0 0 0 0 0 0 0 0 0 0 0 0 0 0 0 0 0 0 0 0 0 0 0 0 0 0 0 0 0 0 0 0 0 0 0 0 0 0
0 0 0 0 0 0 0 0 0 0 0 0 0 0 0 0 0 0 0 0 0 0 0 0 0 0 0 0 0 0 0 0 0 0 0 0 0 0 0 0 0 0 0
0 0 0 0 0 0 0 0 0 0 0 0 0 0 0 0 0 0 0 0 0 0 0 0 0 0 0 0 0 0 0 0 0 0 0 0 0 0 0 0 0 0 0
0 0 0 0 0 0 0 0 0 0 0 0 0 0 0 0 0 0 0 0 0 0 0 0 0 0 0 0 0 0 0 0 0 0 0 0 0 0 0 -0 0 0 0
0 0 0 0 0 0 0 0 0 0 0 0 0 0 0 0 0 0 0 0 0 0 0 0 0 0 0 0 0 0 0 0 0 0 0 0 0 0 -0 -0 0 0 0
0 0 0 0 0 0 0 0 0 0 0 0 0 0 0 0 0 0 0 0 0 0 0 0 0 -0 0 0 0 0 0 0 0 0 0 -0 -0 -0 -0 0 0 0 0
0 0 0 0 0 0 0 0 0 0 0 0 0 0 0 0 0 0 0 0 0 0 0 0 0 -0 0 -0 0 0 0 0 0 0 0 -0 0 0 -0 0 0 0 0
0 0 0 0 0 0 0 0 0 0 0 0 0 0 0 0 0 0 0 0 0 0 0 0 0 -0 -0 -0 -0 0 0 0 0 0 0 0 0 0 0 0 0 0 0
0 0 0 0 0 0 0 0 0 0 0 0 0 0 0 0 0 0 0 0 0 0 0 0 -0 -0 0 -0 -0 -0 0 0 0 0 0 0 0 0 0 0 0 0 -0
0 0 0 0 0 0 0 0 0 0 0 0 0 0 0 0 0 0 0 0 0 0 0 0 0 0 0 0 0 0 0 0 0 0 0 0 0 0 0 0 -0 -0 -0
0 0 0 0 0 0 0 0 0 0 0 0 0 0 0 0 0 0 0 0 0 0 0 0 0 0 0 0 0 0 0 0 0 0 0 0 0 0 0 0 0 -0 -0
0 0 0 0 0 0 0 0 0 0 0 0 0 0 0 0 0 0 0 0 0 0 0 0 0 0 0 0 0 0 0 0 0 0 0 0 0 0 0 0 -0 -0 -0
0 0 0 0 0 0 0 0 0 0 0 0 0 0 0 0 0 0 0 0 0 0 0 0 0 0 0 0 0 0 0 0 0 0 0 0 0 0 0 0 0 0 0
0 0 0 0 0 0 0 0 0 0 -0 0 -0 0 0 0 0 0 0 0 0 0 0 0 0 0 0 0 0 0 0 0 0 0 -0 0 -0 -0 0 0 -0 0 0
0 0 0 0 0 0 0 0 0 0 0 0 0 0 0 0 0 0 0 0 0 0 0 0 0 0 0 0 0 0 0 0 -0 0 -0 -0 -0 -0 0 0 0 0 0
0 0 0 0 0 0 0 0 0 0 0 0 0 0 0 0 0 0 0 0 0 0 0 0 0 0 0 0 0 0 0 0 0 -0 -0 -0 -0 -0 -0 0 0 0 0
0 0 0 0 0 0 0 0 0 0 0 0 0 0 0 0 0 0 0 0 0 0 0 0 0 0 0 0 0 0 0 0 0 0 0 0 0 -0 -0 -0 -0 -0 -0
0 0 0 0 0 0 0 0 0 0 0 0 0 0 0 0 0 0 0 0 0 0 0 0 0 0 0 0 0 0 0 0 0 0 -0 -0 -0 -0 -0 -0 -0 -0 -0
0 0 0 0 0 0 0 0 0 0 0 0 0 0 0 0 0 0 0 0 0 0 0 0 0 0 0 0 0 0 0 0 0 0 0 -0 -0 -0 -0 -0 -0 -0 -0
0 0 0 0 0 0 0 0 0 0 0 0 0 0 0 0 0 0 0 0 0 0 0 0 0 0 0 0 0 0 0 0 0 0 0 -0 -0 -0 -0 -0 -0 -0 -0
0 0 0 0 0 0 0 0 0 0 0 0 0 0 0 0 0 0 0 0 0 0 0 0 0 0 0 0 0 0 0 0 0 0 0 0 -0 -0 -0 -0 -0 -0 -0
0 0 0 0 0 0 0 0 0 0 0 0 0 0 0 0 0 0 0 0 0 0 0 0 0 0 0 0 0 0 0 0 0 0 0 0 -0 -0 -0 -0 -0 -0 0
0 0 0 0 0 0 0 0 0 0 0 0 0 0 0 0 0 0 0 0 0 0 0 0 0 0 0 0 0 0 0 0 0 0 0 0 -0 -0 -0 -0 -0 -0 0
Wind_Speed_500mb
20 17 15 12 10 13 18 22 25 29 33 35 38 42 45 47 45 45 44 43 44 46 47 49 54 50 54 52 54 52 56 65 75 73 68 65 67 64 68 59 59 57 62
21 16 12 10 10 14 17 20 24 28 31 35 39 42 44 44 43 44 45 42 44 47 48 53 57 58 62 63 57 63 56 58 66 76 70 65 62 54 53 54 47 48 58
19 15 11 8 10 12 16 20 24 27 31 36 41 46 47 45 46 40 39 39 45 49 51 55 58 61 65 60 57 57 55 56 56 61 61 58 59 60 56 51 55 44 38
18 12 10 10 10 12 15 19 23 27 33 38 43 47 47 41 38 34 31 36 43 46 50 57 61 60 59 55 55 52 54 54 53 52 54 55 49 46 37 45 43 41 39
19 17 16 14 12 12 15 19 24 28 33 38 42 46 47 40 35 36 35 38 46 51 53 58 59 53 49 47 45 46 55 47 50 51 52 51 54 52 51 50 49 48 42
26 22 18 14 13 13 16 19 24 27 33 38 41 46 47 41 34 35 39 46 48 53 60 57 53 47 42 41 42 42 38 40 47 49 55 57 58 54 49 53 53 47 43
30 24 18 13 11 13 17 21 25 28 32 37 40 44 46 44 39 37 41 45 47 53 56 52 51 48 39 41 39 31 31 33 39 50 54 57 58 53 53 51 49 42 49
31 25 18 12 10 14 18 22 27 30 33 36 39 42 45 44 43 41 42 44 44 48 48 43 47 49 37 34 33 33 35 37 35 32 36 45 47 51 52 54 51 52 49
35 26 18 11 12 18 21 25 28 31 34 37 40 43 44 44 45 45 43 43 44 44 40 36 41 41 33 31 33 37 37 28 20 32 41 48 50 51 49 44 41 39 34
37 26 17 12 13 18 23 26 29 33 37 40 41 43 43 45 45 46 44 43 43 43 37 33 33 36 32 25 29 24 20 17 27 38 44 41 35 32 24 16 16 20 27
35 25 19 18 19 21 26 29 33 36 40 42 43 43 44 43 45 46 46 45 43 40 42 37 32 35 28 25 20 18 24 31 38 42 32 25 22 15 10 6 7 15 21
33 26 23 25 27 29 34 34 37 41 44 46 47 45 45 43 45 45 45 45 44 38 37 40 35 31 28 26 24 23 26 27 25 24 17 15 11 12 11 7 1 10 19
34 29 29 32 35 35 38 41 45 47 48 49 50 49 47 46 46 45 44 44 42 38 32 34 37 32 25 24 20 20 18 13 13 13 14 11 8 8 9 5 4 8 12
40 40 40 42 43 42 43 46 50 51 49 50 51 52 49 47 46 47 46 45 42 38 32 24 32 27 21 21 16 12 8 9 9 10 10 10 9 6 3 7 12 16 17
42 42 46 47 45 44 47 48 49 49 46 46 48 51 50 48 44 46 47 46 47 43 36 25 23 25 17 14 8 6 5 5 5 7 6 7 6 6 6 10 10 16 34
42 43 42 41 41 44 46 46 43 41 41 42 43 48 46 46 44 45 45 42 44 44 40 30 21 24 18 12 9 7 5 4 1 0 3 8 14 16 19 24 30 41 51
43 41 42 43 44 43 44 44 48 44 41 39 41 44 44 44 44 44 45 42 42 41 38 30 24 24 21 16 13 10 7 6 7 10 17 22 24 32 33 37 42 47 56
48 49 49 48 46 44 45 48 51 53 53 47 42 44 44 44 42 42 44 42 39 38 34 28 24 24 23 19 16 14 12 13 20 25 27 27 29 31 36 40 45 49 51
56 56 51 48 48 48 50 52 53 54 56 55 52 47 45 45 45 43 42 40 35 34 31 25 24 25 24 23 20 18 20 25 29 30 26 27 29 30 36 38 41 41 40
56 57 54 54 53 54 56 57 59 61 63 63 62 56 51 46 46 44 41 38 32 29 27 21 20 22 24 24 23 27 30 31 26 26 28 30 31 30 30 31 30 28 27
58 60 60 59 59 58 60 61 63 66 70 72 72 66 57 52 48 48 44 38 32 24 21 13 12 15 22 26 32 33 30 26 27 29 29 29 28 26 25 24 23 22 21
63 63 60 60 59 60 63 64 65 67 69 72 74 71 62 58 51 50 47 41 34 26 19 8 8 14 21 28 29 26 25 26 29 29 29 27 24 22 20 19 20 22 22
60 60 61 63 65 67 71 73 74 74 73 70 75 72 66 59 55 52 49 46 40 35 28 22 18 19 23 24 25 23 24 25 27 26 24 23 23 22 21 20 20 22 22
62 63 63 66 69 71 72 75 77 77 74 68 70 71 65 57 58 56 51 50 46 43 38 34 31 31 31 30 30 31 30 30 29 28 25 22 21 21 22 22 23 24 25
62 64 66 69 69 69 72 72 72 72 70 68 69 68 65 58 57 59 57 54 53 50 47 43 41 38 37 36 35 36 37 35 32 29 29 26 22 21 20 21 21 25 24
60 61 64 65 65 67 69 70 72 71 69 68 66 71 67 62 58 58 61 60 60 56 53 51 47 44 42 42 41 39 38 37 35 32 30 27 24 24 24 24 24 24 24
Wind_Direction_500mb
203 214 228 242 280 321 336 335 333 331 329 329 329 324 317 311 305 298 297 300 301 304 306 304 304 302 298 295 291 294 294 286 283 287 289 292 297 291 290 294 296 285 273
205 213 232 263 305 325 327 329 330 331 333 333 330 326 324 321 314 301 296 298 300 300 302 302 302 300 299 300 293 286 292 292 286 288 291 294 297 295 295 293 298 301 273
208 221 242 284 305 313 319 324 329 332 334 337 336 336 335 333 331 322 302 297 299 303 303 303 302 302 302 302 299 292 291 296 292 286 293 288 297 294 300 301 304 300 296
212 230 249 264 282 296 309 322 330 334 338 340 340 341 339 334 333 331 321 312 310 309 308 305 306 306 304 304 301 293 296 294 290 287 291 291 294 306 305 308 321 322 305
217 224 235 247 261 283 304 321 331 335 336 337 342 344 342 336 333 330 325 320 315 315 314 313 309 305 303 298 297 292 295 288 285 290 294 289 292 296 298 303 308 321 314
212 218 223 238 258 280 302 317 325 330 332 336 340 342 344 342 331 324 320 318 321 322 321 319 315 311 318 312 306 298 285 286 288 292 294 294 296 297 302 303 305 314 322
210 213 222 235 259 287 303 313 320 324 329 332 337 342 344 342 330 320 316 317 320 328 327 327 332 326 312 313 307 300 302 297 293 291 286 287 294 306 305 299 297 303 311
206 207 214 231 263 286 303 312 316 319 326 330 335 338 340 341 335 323 317 319 322 330 333 332 334 325 311 306 304 303 303 301 301 298 298 300 298 297 293 290 291 290 298
201 204 207 234 280 300 307 310 313 319 322 326 331 333 335 340 338 333 321 320 324 332 338 341 334 330 320 300 295 298 301 310 297 300 299 297 299 296 295 285 277 275 273
198 200 216 248 289 310 314 315 317 318 320 322 326 328 330 335 339 339 329 320 324 331 339 336 329 329 338 314 287 291 304 314 307 312 311 308 311 313 312 291 254 244 237
196 211 234 262 284 301 313 317 315 316 317 318 319 322 326 330 335 339 336 324 319 330 332 336 326 324 332 328 322 320 315 308 311 314 317 325 333 349 354 339 235 224 223
205 226 251 271 282 293 300 307 308 310 313 315 315 318 322 327 331 338 339 330 318 320 323 325 329 325 330 328 322 314 303 301 313 321 325 325 345 30 41 29 191 203 204
219 238 256 269 279 285 290 296 301 305 309 310 311 312 315 321 327 332 340 337 324 317 312 316 323 332 318 317 322 317 313 315 333 337 323 320 359 24 41 48 103 162 184
233 248 262 272 277 279 285 291 297 302 306 307 307 307 308 313 321 327 335 340 331 321 308 311 315 328 324 309 315 315 308 326 332 327 318 321 337 350 34 117 124 126 138
244 255 263 270 274 277 283 291 295 299 301 301 305 304 303 306 315 320 328 336 331 326 313 301 303 315 316 309 310 308 303 304 321 326 325 331 355 36 96 123 141 143 130
252 255 260 264 269 275 285 292 297 301 301 301 302 302 303 301 306 312 320 327 326 319 312 294 288 292 292 281 274 270 279 265 161 232 63 73 66 75 93 108 119 122 117
253 255 258 262 266 276 284 292 299 301 304 305 304 304 304 301 299 305 312 319 323 317 306 290 275 273 273 265 263 256 247 228 165 139 118 105 99 95 101 113 119 121 121
254 257 258 260 267 273 279 285 290 295 301 304 308 308 309 302 294 297 304 311 318 317 306 289 270 262 258 247 242 234 211 184 151 136 125 116 109 108 114 117 121 122 121
251 256 260 260 264 269 274 280 285 289 292 297 301 303 306 305 295 289 294 301 308 313 307 288 264 252 243 235 225 210 179 158 145 138 131 125 121 123 123 123 126 126 125
253 256 258 261 265 270 274 279 283 285 287 290 293 296 298 299 295 287 285 290 296 305 305 297 267 246 231 218 201 177 162 154 152 150 145 140 136 134 131 129 131 131 133
257 259 261 263 267 271 274 276 279 281 283 285 287 290 286 287 288 282 276 278 282 288 294 300 266 229 213 191 175 167 165 167 166 161 153 148 146 145 145 145 145 143 140
255 259 263 266 270 273 275 277 278 278 280 282 284 285 283 275 277 276 270 267 267 264 264 242 220 174 173 170 168 175 179 175 171 166 161 159 154 151 150 148 145 141 138
261 265 267 269 271 273 274 276 277 278 277 278 281 281 279 270 267 269 264 258 256 251 242 228 201 190 175 183 189 188 182 179 177 171 169 167 165 163 159 159 155 152 149
267 267 267 268 268 269 270 273 276 277 279 278 275 275 273 270 262 263 259 249 247 244 237 228 219 215 212 206 199 187 181 183 181 175 173 177 175 171 169 165 162 160 158
261 263 265 266 267 269 274 273 274 275 275 274 272 268 269 269 258 257 255 243 240 238 237 230 224 219 216 211 204 195 187 185 186 184 180 176 179 177 173 169 169 164 160
266 266 267 267 268 271 272 274 273 272 270 272 268 265 266 265 258 252 252 244 234 233 232 230 225 222 217 213 205 199 195 190 189 190 187 184 183 183 180 178 175 172 169
Wind_Speed_850mb
20 17 15 12 10 13 18 22 25 29 33 35 38 42 45 47 45 45 44 43 44 46 47 49 54 50 54 52 54 52 56 65 75 73 68 65 67 64 68 59 59 57 62
21 16 12 10 10 14 17 20 24 28 31 35 39 42 44 44 43 44 45 42 44 47 48 53 57 58 62 63 57 63 56 58 66 76 70 65 62 54 53 54 47 48 58
19 15 11 8 10 12 16 20 24 27 31 36 41 46 47 45 46 40 39 39 45 49 51 55 58 61 65 60 57 57 55 56 56 61 61 58 59 60 56 51 55 44 38
18 12 10 10 10 12 15 19 23 27 33 38 43 47 47 41 38 34 31 36 43 46 50 57 61 60 59 55 55 52 54 54 53 52 54 55 49 46 37 45 43 41 39
19 17 16 14 12 12 15 19 24 28 33 38 42 46 47 40 35 36 35 38 46 51 53 58 59 53 49 47 45 46 55 47 50 51 52 51 54 52 51 50 49 48 42
26 22 18 14 13 13 16 19 24 27 33 38 41 46 47 41 34 35 39 46 48 53 60 57 53 47 42 41 42 42 38 40 47 49 55 57 58 54 49 53 53 47 43
30 24 18 13 11 13 17 21 25 28 32 37 40 44 46 44 39 37 41 45 47 53 56 52 51 48 39 41 39 31 31 33 39 50 54 57 58 53 53 51 49 42 49
31 25 18 12 10 14 18 22 27 30 33 36 39 42 45 44 43 41 42 44 44 48 48 43 47 49 37 34 33 33 35 37 35 32 36 45 47 51 52 54 51 52 49
35 26 18 11 12 18 21 25 28 31 34 37 40 43 44 44 45 45 43 43 44 44 40 36 41 41 33 31 33 37 37 28 20 32 41 48 50 51 49 44 41 39 34
37 26 17 12 13 18 23 26 29 33 37 40 41 43 43 45 45 46 44 43 43 43 37 33 33 36 32 25 29 24 20 17 27 38 44 41 35 32 24 16 16 20 27
35 25 19 18 19 21 26 29 33 36 40 42 43 43 44 43 45 46 46 45 43 40 42 37 32 35 28 25 20 18 24 31 38 42 32 25 22 15 10 6 7 15 21
33 26 23 25 27 29 34 34 37 41 44 46 47 45 45 43 45 45 45 45 44 38 37 40 35 31 28 26 24 23 26 27 25 24 17 15 11 12 11 7 1 10 19
34 29 29 32 35 35 38 41 45 47 48 49 50 49 47 46 46 45 44 44 42 38 32 34 37 32 25 24 20 20 18 13 13 13 14 11 8 8 9 5 4 8 12
40 40 40 42 43 42 43 46 50 51 49 50 51 52 49 47 46 47 46 45 42 38 32 24 32 27 21 21 16 12 8 9 9 10 10 10 9 6 3 7 12 16 17
42 42 46 47 45 44 47 48 49 49 46 46 48 51 50 48 44 46 47 46 47 43 36 25 23 25 17 14 8 6 5 5 5 7 6 7 6 6 6 10 10 16 34
42 43 42 41 41 44 46 46 43 41 41 42 43 48 46 46 44 45 45 42 44 44 40 30 21 24 18 12 9 7 5 4 1 0 3 8 14 16 19 24 30 41 51
43 41 42 43 44 43 44 44 48 44 41 39 41 44 44 44 44 44 45 42 42 41 38 30 24 24 21 16 13 10 7 6 7 10 17 22 24 32 33 37 42 47 56
48 49 49 48 46 44 45 48 51 53 53 47 42 44 44 44 42 42 44 42 39 38 34 28 24 24 23 19 16 14 12 13 20 25 27 27 29 31 36 40 45 49 51
56 56 51 48 48 48 50 52 53 54 56 55 52 47 45 45 45 43 42 40 35 34 31 25 24 25 24 23 20 18 20 25 29 30 26 27 29 30 36 38 41 41 40
56 57 54 54 53 54 56 57 59 61 63 63 62 56 51 46 46 44 41 38 32 29 27 21 20 22 24 24 23 27 30 31 26 26 28 30 31 30 30 31 30 28 27
58 60 60 59 59 58 60 61 63 66 70 72 72 66 57 52 48 48 44 38 32 24 21 13 12 15 22 26 32 33 30 26 27 29 29 29 28 26 25 24 23 22 21
63 63 60 60 59 60 63 64 65 67 69 72 74 71 62 58 51 50 47 41 34 26 19 8 8 14 21 28 29 26 25 26 29 29 29 27 24 22 20 19 20 22 22
60 60 61 63 65 67 71 73 74 74 73 70 75 72 66 59 55 52 49 46 40 35 28 22 18 19 23 24 25 23 24 25 27 26 24 23 23 22 21 20 20 22 22
62 63 63 66 69 71 72 75 77 77 74 68 70 71 65 57 58 56 51 50 46 43 38 34 31 31 31 30 30 31 30 30 29 28 25 22 21 21 22 22 23 24 25
62 64 66 69 69 69 72 72 72 72 70 68 69 68 65 58 57 59 57 54 53 50 47 43 41 38 37 36 35 36 37 35 32 29 29 26 22 21 20 21 21 25 24
60 61 64 65 65 67 69 70 72 71 69 68 66 71 67 62 58 58 61 60 60 56 53 51 47 44 42 42 41 39 38 37 35 32 30 27 24 24 24 24 24 24 24
Wind_Direction_850mb
203 214 228 242 280 321 336 335 333 331 329 329 329 324 317 311 305 298 297 300 301 304 306 304 304 302 298 295 291 294 294 286 283 287 289 292 297 291 290 294 296 285 273
205 213 232 263 305 325 327 329 330 331 333 333 330 326 324 321 314 301 296 298 300 300 302 302 302 300 299 300 293 286 292 292 286 288 291 294 297 295 295 293 298 301 273
208 221 242 284 305 313 319 324 329 332 334 337 336 336 335 333 331 322 302 297 299 303 303 303 302 302 302 302 299 292 291 296 292 286 293 288 297 294 300 301 304 300 296
212 230 249 264 282 296 309 322 330 334 338 340 340 341 339 334 333 331 321 312 310 309 308 305 306 306 304 304 301 293 296 294 290 287 291 291 294 306 305 308 321 322 305
217 224 235 247 261 283 304 321 331 335 336 337 342 344 342 336 333 330 325 320 315 315 314 313 309 305 303 298 297 292 295 288 285 290 294 289 292 296 298 303 308 321 314
212 218 223 238 258 280 302 317 325 330 332 336 340 342 344 342 331 324 320 318 321 322 321 319 315 311 318 312 306 298 285 286 288 292 294 294 296 297 302 303 305 314 322
210 213 222 235 259 287 303 313 320 324 329 332 337 342 344 342 330 320 316 317 320 328 327 327 332 326 312 313 307 300 302 297 293 291 286 287 294 306 305 299 297 303 311
206 207 214 231 263 286 303 312 316 319 326 330 335 338 340 341 335 323 317 319 322 330 333 332 334 325 311 306 304 303 303 301 301 298 298 300 298 297 293 290 291 290 298
201 204 207 234 280 300 307 310 313 319 322 326 331 333 335 340 338 333 321 320 324 332 338 341 334 330 320 300 295 298 301 310 297 300 299 297 299 296 295 285 277 275 273
198 200 216 248 289 310 314 315 317 318 320 322 326 328 330 335 339 339 329 320 324 331 339 336 329 329 338 314 287 291 304 314 307 312 311 308 311 313 312 291 254 244 237
196 211 234 262 284 301 313 317 315 316 317 318 319 322 326 330 335 339 336 324 319 330 332 336 326 324 332 328 322 320 315 308 311 314 317 325 333 349 354 339 235 224 223
205 226 251 271 282 293 300 307 308 310 313 315 315 318 322 327 331 338 339 330 318 320 323 325 329 325 330 328 322 314 303 301 313 321 325 325 345 30 41 29 191 203 204
219 238 256 269 279 285 290 296 301 305 309 310 311 312 315 321 327 332 340 337 324 317 312 316 323 332 318 317 322 317 313 315 333 337 323 320 359 24 41 48 103 162 184
233 248 262 272 277 279 285 291 297 302 306 307 307 307 308 313 321 327 335 340 331 321 308 311 315 328 324 309 315 315 308 326 332 327 318 321 337 350 34 117 124 126 138
244 255 263 270 274 277 283 291 295 299 301 301 305 304 303 306 315 320 328 336 331 326 313 301 303 315 316 309 310 308 303 304 321 326 325 331 355 36 96 123 141 143 130
252 255 260 264 269 275 285 292 297 301 301 301 302 302 303 301 306 312 320 327 326 319 312 294 288 292 292 281 274 270 279 265 161 232 63 73 66 75 93 108 119 122 117
253 255 258 262 266 276 284 292 299 301 304 305 304 304 304 301 299 305 312 319 323 317 306 290 275 273 273 265 263 256 247 228 165 139 118 105 99 95 101 113 119 121 121
254 257 258 260 267 273 279 285 290 295 301 304 308 308 309 302 294 297 304 311 318 317 306 289 270 262 258 247 242 234 211 184 151 136 125 116 109 108 114 117 121 122 121
251 256 260 260 264 269 274 280 285 289 292 297 301 303 306 305 295 289 294 301 308 313 307 288 264 252 243 235 225 210 179 158 145 138 131 125 121 123 123 123 126 126 125
253 256 258 261 265 270 274 279 283 285 287 290 293 296 298 299 295 287 285 290 296 305 305 297 267 246 231 218 201 177 162 154 152 150 145 140 136 134 131 129 131 131 133
257 259 261 263 267 271 274 276 279 281 283 285 287 290 286 287 288 282 276 278 282 288 294 300 266 229 213 191 175 167 165 167 166 161 153 148 146 145 145 145 145 143 140
255 259 263 266 270 273 275 277 278 278 280 282 284 285 283 275 277 276 270 267 267 264 264 242 220 174 173 170 168 175 179 175 171 166 161 159 154 151 150 148 145 141 138
261 265 267 269 271 273 274 276 277 278 277 278 281 281 279 270 267 269 264 258 256 251 242 228 201 190 175 183 189 188 182 179 177 171 169 167 165 163 159 159 155 152 149
267 267 267 268 268 269 270 273 276 277 279 278 275 275 273 270 262 263 259 249 247 244 237 228 219 215 212 206 199 187 181 183 181 175 173 177 175 171 169 165 162 160 158
261 263 265 266 267 269 274 273 274 275 275 274 272 268 269 269 258 257 255 243 240 238 237 230 224 219 216 211 204 195 187 185 186 184 180 176 179 177 173 169 169 164 160
266 266 267 267 268 271 272 274 273 272 270 272 268 265 266 265 258 252 252 244 234 233 232 230 225 222 217 213 205 199 195 190 189 190 187 184 183 183 180 178 175 172 169